Regional Weather Roundup
Issued by NWS Mobile, AL

Home | Current Version | Previous Version | Text Only | Print | Product List | Glossary On
Versions: 1 2 3 4 5 6 7 8 9 10 11 12 13 14 15 16 17 18 19 20 21 22 23 24 25 26 27 28
000
ASUS44 KMOB 230712
RWRMOB
REGIONAL WEATHER ROUNDUP
NATIONAL WEATHER SERVICE MOBILE AL
200 AM CDT TUE MAY 23 2017

NOTE: "FAIR" INDICATES FEW OR NO CLOUDS BELOW 12,000 FEET WITH NO
      SIGNIFICANT WEATHER AND/OR OBSTRUCTIONS TO VISIBILITY.

  * THESE STATIONS ARE PART OF THE UNIVERSITY OF SOUTH ALABAMA
    MESONET AND ARE NOT UNDER NWS OR FAA QUALITY CONTROL.

ALZ061>064-230800-
COASTAL ALABAMA

CITY           SKY/WX    TMP DP  RH WIND       PRES   REMARKS
MOBILE REG APT LGT RAIN  72  70  93 SE7       29.86F
BROOKLEY FIELD LGT RAIN  75  73  93 SE6       29.87F
USA CAMPUS*      N/A     70  70 100 CALM      29.85F
DOG RIVER*       N/A     72  70  94 SE7       30.56


CITY           SKY/WX    TMP DP  RH WIND       PRES   REMARKS
GULF SHORES    LGT RAIN  73  73 100 S10       29.87F

$$

ALZ051>060-230800-
INTERIOR SOUTHWEST AND SOUTH CENTRAL ALABAMA

CITY           SKY/WX    TMP DP  RH WIND       PRES   REMARKS
GREENVILLE     RAIN      70  65  84 CALM      29.89F
EVERGREEN      LGT RAIN  71  69  93 CALM      29.90F FOG
ATMORE*          N/A     72  70  94 SE3       29.90F
ANDALUSIA/OPP  CLOUDY    74  70  87 CALM      29.89F
ANDALUSIA*       N/A     70  70 100 W5        29.90F
FLORALA APT    CLOUDY    71  69  93 CALM      29.91F
FLORALA*         N/A     72  70  94 CALM      30.56F

$$

FLZ001>006-230800-
WESTERN FLORIDA PANHANDLE

CITY           SKY/WX    TMP DP  RH WIND       PRES   REMARKS
PENSACOLA      LGT RAIN  76  71  85 SW3       29.87F
NAS PENSACOLA  LGT RAIN  74  70  87 SW3       29.87F
MILTON         LGT RAIN  72  72 100 CALM      29.88F
WHTNG S FIELD  LGT RAIN  75  73  93 CALM      29.88F


CITY           SKY/WX    TMP DP  RH WIND       PRES   REMARKS
JAY*             N/A     72  70  94 CALM      29.89F
DUKE FIELD     CLOUDY    73  71  91 SW5       29.87F
CRESTVIEW      LGT RAIN  73  71  93 SW5       29.90F
VALPARAISO     NOT AVBL
DESTIN         LGT RAIN  78  78 100 CALM      29.88F

$$

MSZ076-079-230800-
INTERIOR SOUTHEAST MISSISSIPPI

CITY           SKY/WX    TMP DP  RH WIND       PRES   REMARKS
LEAKESVILLE*   NOT AVBL
AGRICOLA*        N/A     68  68 100 E3        29.84

$$

MARINE OBSERVATIONS

STATION/POSITION TIME  TEMP    WIND        PRES    WAVE
                       AIR SEA DIR/SP/G            HT/PER
                 (UTC) (F)     (DEG/KT/KT) (MB)    (FT/S)
PASCAGOULA       0648          150/ 15/ 20 1009.9F
PETIT BOIS ISLND 0648          140/ 12/ 17 1010.6F
GRAND BAY        0545   76     170/ 12     1013.0F
KATRINA CUT      0630   76     160/ 16     1010.8F
CEDAR POINT      0630   76     160/ 12     1011.5F
E DAUPHIN ISLAND 0600   76     160/ 14/ 16 1012.0F
MIDDLE BAY LIGHT 0630   75     160/ 14     1011.5F
USCG MOBILE BAY  0648      79  120/  8/  9 1011.6F
STATE DOCKS      0642      77              1011.1F
MEAHER PARK      0630   72      80/  4     1011.5F
FORT MORGAN      0648          180/ 15/ 16   N/A
12 S ORANGE BCH  0550   77 80  200/  8/ 10 1012.8F   1/ 7
PENSACOLA BAY    0642      80              1012.0F
64 S DAUPHIN ISL 0650   78 79  180/ 10/ 12 1011.5F   2/ 6
67 S FORT MORGAN 0630   76     180/  8     1012.2F

$$

SELECTED LOCATIONS ACROSS THE REGION

CITY           SKY/WX    TMP DP  RH WIND       PRES   REMARKS
NEW ORLEANS    CLOUDY    74  71  91 S10G22    29.81F
GULFPORT       RAIN      74  71  91 S16G24    29.81F FOG
PASCAGOULA AP  CLOUDY    72  69  90 SE6       29.83F
PASCAGOULA*    NOT AVBL
HATTIESBURG    LGT RAIN  69  67  93 SE10      29.84F
LAUREL         NOT AVBL
MERIDIAN       RAIN      66  65  96 SE6       29.89F
JACKSON        LGT RAIN  66  64  93 E6        29.85F
MONTGOMERY     HVY RAIN  72  66  81 NW10      29.89F
TROY           CLOUDY    71  71 100 CALM      29.87F
ASHFORD*         N/A     70  70 100 W5        29.90F
DOTHAN         CLOUDY    73  73 100 SW6       29.92F
PANAMA CITY    CLOUDY    75  71  87 SW5       29.89F

$$





USA.gov is the U.S. government's official web portal to all federal, state and local government web resources and services.